    raan => '342.4103',
    eccentricity => '0.0010424',
    meanmotion => '14.23475254',
    meananomaly => '301.7928',
    elset => 999,
    epoch => '25336.50497441'
  },
  'AO-123' => {
    meanmotion => '15.31617936',
    epoch => '25336.87382005',
    elset => 999,
    meananomaly => '64.156',
    raan => '202.4328',
    eccentricity => '0.0013226',
    id => 61781,
    mm1 => '0.00014005',
    argperigee => '295.8317',
    bstar => '0.00045969',
    mm2 => 0,
    number => 24199,
    inclination => '97.3263',
    orbit => 10383
  },
  SPARROW => {
    bstar => '0.0011778',
    id => 43881,
    mm1 => '0.00051864',
    argperigee => '7.2422',
    inclination => '97.6085',
    orbit => 38082,
    number => 18111,
    mm2 => 0,
    meanmotion => '15.42851574',
    epoch => '25336.7376358',
    meananomaly => '352.8903',
    elset => 999,
    eccentricity => '0.0005498',
    raan => '259.7384'
  },
  'UWE-4' => {
    mm2 => 0,
    number => 18111,
    inclination => '97.5856',
    orbit => 38054,
    argperigee => '323.0521',
    mm1 => '0.00032226',
    id => 43880,
    bstar => '0.0009887',
    raan => '252.9705',
    eccentricity => '0.0008643',
    epoch => '25336.71846441',
    elset => 999,
    meananomaly => '37.0124',
    meanmotion => '15.33655754'
  },
  'DTUSAT-2' => {
    raan => '317.7862',
    eccentricity => '0.0008269',
    meanmotion => '15.11473136',
    elset => 999,
    meananomaly => '189.9725',
    epoch => '25336.87265854',
    mm2 => 0,
    number => 14033,
    orbit => 62299,
    inclination => '98.0745',
    id => 40030,
    argperigee => '170.1667',
    mm1 => '0.00010821',
    bstar => '0.00064274'
  },
  GRBBETA => {
    meanmotion => '15.04594883',
    epoch => '25336.84961995',
    meananomaly => '266.0201',
    elset => 999,
    eccentricity => '0.0056624',
    raan => '184.151',
    bstar => '0.00043185',
    id => 60237,
    argperigee => '94.736',
    mm1 => '6.097e-05',
    inclination => '61.9894',
    orbit => 7670,
    number => 24128,
    mm2 => 0
  },
  ISAT => {
    orbit => 38070,
    inclination => '97.5902',
    number => 18111,
    mm2 => 0,
    bstar => '0.0011382',
    argperigee => '317.473',
    mm1 => '0.00046629',
    id => 43879,
    eccentricity => '0.000454',
    raan => '256.0448',
    elset => 999,
    meananomaly => '42.6164',
    epoch => '25336.73872828',
    meanmotion => '15.40705504'
  },
  'RSP-03' => {
    orbit => 1161,
    inclination => '51.6273',
    mm2 => 0,
    number => 98067,
    bstar => '0.0011616',
    argperigee => '191.7215',
    mm1 => '0.0012054',
    id => 65732,
    eccentricity => '0.0006827',
    raan => '186.7826',
    elset => 999,
    meananomaly => '168.3622',
    epoch => '25336.85465471',
    meanmotion => '15.65600923'
  },
  'Z-SAT' => {
    raan => '13.1195',
    eccentricity => '0.0016473',
    meanmotion => '15.16281505',
    elset => 999,
    meananomaly => '153.0048',
    epoch => '25336.87874355',
    mm2 => 0,
    number => 21102,
    orbit => 22367,
    inclination => '97.3598',
    id => 49399,
    argperigee => '207.0329',
    mm1 => '6.307e-05',
    bstar => '0.00032804'
  },
  'HYDRA-T' => {
    raan => '58.6386',
    eccentricity => '0.0001982',
    meanmotion => '15.5607282',
    elset => 999,
    meananomaly => '130.0581',
    epoch => '25336.21475099',
    mm2 => 0,
    number => 25009,
    orbit => 4915,
    inclination => '97.3907',
    id => 62692,
    argperigee => '230.05',
    mm1 => '0.00169943',
    bstar => '0.002391'
  },
  'TO-108' => {
    number => 19093,
    mm2 => 0,
    inclination => '97.7771',
    orbit => 32225,
    id => 44881,
    mm1 => '1.448e-05',
    argperigee => '18.5343',
    bstar => '0.00017131',
    raan => '48.7219',
    eccentricity => '0.001405',
    meanmotion => '14.86066073',
    epoch => '25336.87002779',
    elset => 999,
    meananomaly => '341.6382'
  },
  'AO-95' => {
    eccentricity => '0.0008828',
    raan => '32.7651',
    meanmotion => '15.21491883',
    elset => 999,
    meananomaly => '33.273',
    epoch => '25336.40310654',
    orbit => 38324,
    inclination => '97.4699',
    mm2 => 0,
    number => 18099,
    bstar => '0.00062662',
    id => 43770,
    argperigee => '326.795',
    mm1 => '0.00014055'
  },
  SNUGLITE => {
    raan => '27.7302',
    eccentricity => '0.0001659',
    meanmotion => '15.21868179',
    elset => 999,
    meananomaly => '103.7701',
    epoch => '25336.12987848',
    mm2 => 0,
    number => 18099,
    orbit => 38329,
    inclination => '97.4192',
    id => 43784,
    argperigee => '256.335',
    mm1 => '0.00013762',
    bstar => '0.00060749'
  },
  'TEVEL2-5' => {
    id => 63214,
    argperigee => '82.4969',
    mm1 => '0.00023562',
    bstar => '0.00090453',
    mm2 => 0,
    number => 25052,
    inclination => '97.4108',
    orbit => 4005,
    meanmotion => '15.26450188',
    epoch => '25336.69376345',
    meananomaly => '277.6864',
    elset => 999,
    raan => '228.5846',
    eccentricity => '0.0005231'
  },
  'CO-65' => {
    eccentricity => '0.0009102',
    raan => '309.8282',
    epoch => '25336.8778316',
    meananomaly => '13.3315',
    elset => 999,
    meanmotion => '15.06842984',
    inclination => '97.8069',
    orbit => 95560,
    number => 8021,
    mm2 => 0,
    bstar => '0.00064822',
    mm1 => '9.615e-05',
    argperigee => '346.7671',
    id => 32785
  },
  ISS => {
    bstar => '0.00017381',
    id => 25544,
    argperigee => '193.8265',
    mm1 => '9.217e-05',
    orbit => 54120,
    inclination => '51.6314',
    number => 98067,
    mm2 => 0,
    meanmotion => '15.49237019',
    meananomaly => '166.2625',
    elset => 999,
    epoch => '25336.09225229',
    eccentricity => '0.0003639',
    raan => '195.1903'
  },
  'DUCHIFAT-3' => {
    eccentricity => '0.0011274',
    raan => '295.4502',
    meananomaly => '148.9083',
    elset => 999,
    epoch => '25336.26407117',
    meanmotion => '15.98883542',
    orbit => 33046,
    inclination => '36.9266',
    mm2 => '0.00045405',
    number => 19089,
    bstar => '0.0019464',
    argperigee => '211.1024',
    mm1 => '0.00981686',
    id => 44854
  },
  'JINJUSAT-1B' => {
    orbit => 4005,
    inclination => '97.421',
    number => 25052,
    mm2 => 0,
    bstar => '0.00080303',
    id => 63210,
    mm1 => '0.00020735',
    argperigee => '68.3636',
    eccentricity => '0.0006027',
    raan => '228.9112',
    meanmotion => '15.26180761',
    meananomaly => '291.8244',
    elset => 999,
    epoch => '25336.6902285'
  },
  CEVROSAT1 => {
    epoch => '25313.13142326',
    meananomaly => '242.1062',
    elset => 0,
    meanmotion => '15.17981583',
    eccentricity => '0.0001315',
    raan => '218.4764',
    bstar => '0.0001936',
    argperigee => '254.8982',
    mm1 => 0,
    id => 98526,
    inclination => '45.4084',
    orbit => 0,
    number => 25248,
    mm2 => 0
  },
  'CO-66' => {
    raan => '321.6743',
    eccentricity => '0.0001307',
    epoch => '25336.86436134',
    elset => 999,
    meananomaly => '42.3243',
    meanmotion => '15.24720954',
    number => 8021,
    mm2 => 0,
    inclination => '97.7433',
    orbit => 95729,
    argperigee => '317.7893',
    mm1 => '0.00022351',
    id => 32791,
    bstar => '0.00090432'
  },
  'TEIKYOSAT-4' => {
    mm1 => '3.517e-05',
    argperigee => '246.0488',
    id => 49396,
    bstar => '0.00022872',
    number => 21102,
    mm2 => 0,
    orbit => 22311,
    inclination => '97.3909',
    meananomaly => '113.9608',
    elset => 999,
    epoch => '25336.85184654',
    meanmotion => '15.08567048',
    raan => '8.823',
    eccentricity => '0.0010827'
  },
  'S-NET-A' => {
    eccentricity => '0.0008886',
    raan => '238.0337',
    epoch => '25336.70947021',
    meananomaly => '13.3111',
    elset => 999,
    meanmotion => '15.14154529',
    inclination => '97.5503',
    orbit => 42900,
    number => 18014,
    mm2 => 0,
    bstar => '0.00045678',
    mm1 => '8.273e-05',
    argperigee => '346.7886',
    id => 43188
  },
  'UO-11' => {
    eccentricity => '0.0009173',
    raan => '300.0384',
    meanmotion => '14.90086263',
    epoch => '25336.85513567',
    elset => 999,
    meananomaly => '250.9362',
    inclination => '97.7792',
    orbit => 22788,
    number => 84021,
    mm2 => 0,
    bstar => '0.00029052',
    id => 14781,
    mm1 => '2.754e-05',
    argperigee => '109.2849'
  },
  'ITASAT-1' => {
    raan => '27.188',
    eccentricity => '0.0012421',
    meananomaly => '37.5092',
    elset => 999,
    epoch => '25336.66484987',
    meanmotion => '15.158233',
    number => 18099,
    mm2 => 0,
    orbit => 38310,
    inclination => '97.4349',
    argperigee => '322.5274',
    mm1 => '9.714e-05',
    id => 43786,
    bstar => '0.00051053'
  },
  'RS-30' => {
    bstar => '0.00015889',
    id => 32953,
    argperigee => '22.6762',
    mm1 => '3.2e-07',
    inclination => '82.5009',
    orbit => 79529,
    mm2 => 0,
    number => 8025,
    meanmotion => '12.43171751',
    epoch => '25336.81172757',
    elset => 999,
    meananomaly => '337.5166',
    eccentricity => '0.0019292',
    raan => '117.5975'
  },
  'RS-44' => {
    bstar => '3.9778e-05',
    mm1 => '2e-07',
    argperigee => '243.2986',
    id => 44909,
    orbit => 27723,
    inclination => '82.5197',
    mm2 => 0,
    number => 19096,
    elset => 999,
    meananomaly => '114.578',
    epoch => '25336.85051248',
    meanmotion => '12.79745682',
    eccentricity => '0.021676',
    raan => '110.1798'
  },
  'EAGLET-1' => {
    meanmotion => '15.10949513',
    elset => 999,
    meananomaly => '50.8016',
    epoch => '25336.63913427',
    raan => '26.4371',
    eccentricity => '0.0010394',
    id => 43790,
    mm1 => '6.69e-05',
    argperigee => '309.229',
    bstar => '0.00040435',
    mm2 => 0,
    number => 18099,
    orbit => 38263,
    inclination => '97.4543'
  },
  SRMSAT => {
    eccentricity => '0.0011742',
    raan => '169.6251',
    meanmotion => '14.11505758',
    meananomaly => '183.2256',
    elset => 999,
    epoch => '25336.54996846',
